Weather History for Wellsville, NY

Change the Weather History Date:

Friday, March 1, 2013

  Actual Average (KBFD) Record (KBFD)
Temperature  
Mean Temperature 26 °F 26 °F  
Max Temperature 30 °F 36 °F 62 °F (1972)
Min Temperature 21 °F 17 °F -17 °F (1980)
Degree Days  
Heating Degree Days 40 33  
Month to date heating degree days 33  
Since 1 July heating degree days 5603  
Cooling Degree Days 0 0  
Month to date cooling degree days 0  
Year to date cooling degree days 0  
Moisture  
Dew Point 21 °F    
Average Humidity 81    
Maximum Humidity 86    
Minimum Humidity 74    
Precipitation  
Precipitation 0.00 in 0.10 in 0.56 in (1963)
Month to date precipitation 0.10  
Year to date precipitation 5.74  
Sea Level Pressure  
Sea Level Pressure 29.81 in    
Wind  
Wind Speed 11 mph (NW)    
Max Wind Speed 14 mph    
Max Gust Speed 21 mph    
Visibility 8 miles    
Events Snow    
T = Trace of Precipitation, MM = Missing Value Source: NWS Daily Summary

Daily Weather History Graph

Daily Weather History Graph

Search for Another Location

Airport:

Trip Planner

Search our weather history database for the weather conditions in past years. The results will help you decide how hot, cold, wet, or windy it might be!

Date:

Astronomy

Mar. 01, 2013 Rise Set
Actual Time 6:46 AM EST 6:02 PM EST
Civil Twilight 6:18 AM EST 6:30 PM EST
Nautical Twilight 5:46 AM EST 7:02 PM EST
Astronomical Twilight 5:13 AM EST 7:35 PM EST
Moon 10:39 PM EST (3/1) 8:27 AM EST (3/1)
Length of Visible Light 12h 11m
Length of Day
11h 15m
Waning Gibbous, 83% of the Moon is Illuminated
Mar 1
Waning Gibbous
Mar 4
Last Quarter
Mar 11
New
Mar 19
First Quarter
Mar 27
Full

Hourly Weather History & Observations

Time (EST) Temp. Windchill Dew Point Humidity Pressure Visibility Wind Dir Wind Speed Gust Speed Precip Events Conditions
12:11 AM 30.2 °F 21.3 °F 26.6 °F 86% 29.65 in 8.0 mi NW 10.4 mph 17.3 mph 0.00 in   Overcast
12:56 AM 30.0 °F 21.7 °F 26.1 °F 85% 29.73 in 9.0 mi WNW 9.2 mph - 0.00 in   Overcast
1:38 AM 30.2 °F 20.8 °F 24.8 °F 80% 29.66 in 10.0 mi NW 11.5 mph - N/A   Overcast
1:56 AM 30.0 °F 21.1 °F 25.0 °F 82% 29.73 in 10.0 mi NNW 10.4 mph - N/A   Overcast
2:36 AM 28.4 °F 18.0 °F 24.8 °F 86% 29.68 in 10.0 mi NW 12.7 mph - N/A   Overcast
2:56 AM 28.9 °F 18.6 °F 25.0 °F 85% 29.74 in 10.0 mi NW 12.7 mph - N/A   Overcast
4:56 AM 28.0 °F 17.0 °F 24.1 °F 85% 29.78 in 2.5 mi NW 13.8 mph - 0.00 in Snow Light Snow
5:11 AM 26.6 °F 15.2 °F 23.0 °F 86% 29.71 in 5.0 mi NW 13.8 mph - 0.00 in Snow Light Snow
6:09 AM 26.6 °F 16.2 °F 21.2 °F 80% 29.72 in 1.8 mi NW 11.5 mph - 0.00 in Snow Light Snow
6:12 AM 26.6 °F 16.2 °F 21.2 °F 80% 29.72 in 2.0 mi NW 11.5 mph - 0.00 in Snow Light Snow
6:19 AM 26.6 °F 16.2 °F 21.2 °F 80% 29.72 in 3.0 mi NNW 11.5 mph - 0.00 in Snow Light Snow
6:26 AM 26.6 °F 16.2 °F 21.2 °F 80% 29.72 in 5.0 mi NW 11.5 mph - 0.00 in Snow Light Snow
7:10 AM 26.6 °F 15.7 °F 21.2 °F 80% 29.73 in 7.0 mi NW 12.7 mph 20.7 mph 0.00 in Snow Light Snow
7:56 AM 26.1 °F 14.5 °F 21.9 °F 84% 29.82 in 10.0 mi NNW 13.8 mph - 0.00 in   Overcast
8:56 AM 26.1 °F 16.8 °F 21.9 °F 84% 29.84 in 8.0 mi NNW 9.2 mph 18.4 mph 0.00 in Snow Light Snow
10:56 AM 27.0 °F 17.3 °F 21.9 °F 81% 29.86 in 9.0 mi NNW 10.4 mph - 0.00 in   Overcast
11:56 AM 27.0 °F 16.7 °F 21.0 °F 78% 29.86 in 10.0 mi NW 11.5 mph - N/A   Overcast
12:56 PM 27.0 °F 17.3 °F 21.0 °F 78% 29.86 in 10.0 mi NNW 10.4 mph - 0.00 in   Overcast
1:56 PM 27.0 °F 16.1 °F 21.0 °F 78% 29.85 in 10.0 mi NNW 12.7 mph - 0.00 in   Overcast
2:12 PM 26.6 °F 16.2 °F 21.2 °F 80% 29.78 in 10.0 mi NNW 11.5 mph - N/A   Overcast
2:44 PM 26.6 °F 16.8 °F 19.4 °F 74% 29.78 in 10.0 mi NNW 10.4 mph - N/A   Overcast
3:56 PM 26.1 °F 14.5 °F 19.0 °F 75% 29.87 in 10.0 mi NW 13.8 mph 18.4 mph N/A   Overcast
5:56 PM 24.1 °F 12.5 °F 17.1 °F 75% 29.90 in 10.0 mi NNW 12.7 mph 18.4 mph N/A   Overcast
6:56 PM 23.0 °F 10.6 °F 17.1 °F 78% 29.92 in 10.0 mi NW 13.8 mph 17.3 mph N/A   Overcast
7:56 PM 21.9 °F 12.5 °F 16.0 °F 78% 29.93 in 10.0 mi NW 8.1 mph - N/A   Overcast
8:22 PM 21.2 °F 10.1 °F 17.6 °F 86% 29.84 in 10.0 mi NW 10.4 mph - N/A   Overcast
8:56 PM 21.9 °F 11.0 °F 17.1 °F 82% 29.93 in 10.0 mi NNW 10.4 mph - N/A   Overcast
9:56 PM 21.0 °F 12.4 °F 16.0 °F 81% 29.94 in 5.0 mi NW 6.9 mph - 0.00 in Snow Light Snow
10:26 PM 21.2 °F 12.6 °F 15.8 °F 80% 29.85 in 2.5 mi NW 6.9 mph - 0.00 in Snow Light Snow
10:56 PM 21.0 °F 10.6 °F 16.0 °F 81% 29.93 in 2.5 mi WNW 9.2 mph - 0.00 in Snow Light Snow
11:56 PM 21.0 °F 10.6 °F 16.0 °F 81% 29.92 in 6.0 mi WNW 9.2 mph - 0.00 in Snow Light Snow